Flag for Ukraine Weather past 2 weeks in Odesa, Ukraine

Now
79 °F

Passing clouds.


Feels Like: 81 °F
Forecast: 68 / 83 °F
Wind: 13 mph from Southeast

Location: Odesa Airport

Current Time: Sep 2, 2014 at 1:13:18 PM

Latest Report: Sep 2, 2014 at 12:30 PM


Visibility: N/A

Pressure: 29.86 "Hg

Humidity: 61%

Dew point: 64 °F

Location of OdesaLocation

Historic Weather in Odesa — Graph

°F

Odesa temperature yesterday

Maximum temperature yesterday: 84 °F (at 3:30 PM)
Minimum temperature yesterday: 54 °F (at 6:30 AM)
Average temperature yesterday: 71 °F

Past Weeks' High & Low Weather Summary

 TemperatureHumidityPressure
High84 °F (Aug 27, 1:00 PM)100% (Aug 22, 2:30 AM)30.18 "Hg (Aug 22, 2:30 AM)
Low52 °F (Aug 29, 5:00 AM)22% (Aug 29, 6:30 PM)29.71 "Hg (Aug 27, 7:00 PM)
Average70 °F59%29.99 "Hg
* Reported Aug 18 12:00 Noon — Sep 2 12:00 Noon, Odesa, Weather by CustomWeather, © 2014

Note: Actual official high and low records may vary slightly from our data, if they occured in-between our weather recording intervals... More about our weather records

Advertising

Odesa weather history for previous 24 hours

 ConditionsComfort  
Time TempWeatherWind HumidityBarometerVisibility
12:00 PM
Sep 2
79 °FPassing clouds.13 mph65%29.86 "HgN/A
11:30 AM79 °FPassing clouds.13 mph61%29.86 "HgN/A
11:00 AM77 °FPassing clouds.8 mph57%29.86 "HgN/A
10:30 AM77 °FPassing clouds.6 mph54%29.86 "HgN/A
10:00 AM75 °FPassing clouds.8 mph54%29.86 "HgN/A
9:30 AM73 °FSunny.13 mph57%29.86 "Hg10 mi
9:00 AM72 °FPassing clouds.10 mph57%29.86 "HgN/A
8:30 AM72 °FSunny.8 mph53%29.86 "Hg10 mi
8:00 AM70 °FPassing clouds.6 mph53%29.86 "HgN/A
7:30 AM68 °FSunny.6 mph53%29.86 "Hg10 mi
7:00 AM66 °FClear.6 mph52%29.86 "Hg10 mi
6:30 AM66 °FClear.6 mph56%29.83 "Hg10 mi
5:30 AM64 °FClear.6 mph60%29.83 "Hg10 mi
5:00 AM64 °FClear.3 mph60%29.83 "Hg10 mi
4:30 AM66 °FClear.6 mph56%29.83 "Hg10 mi
4:00 AM66 °FClear.3 mph56%29.83 "Hg10 mi
3:30 AM66 °FClear.3 mph56%29.83 "Hg10 mi
3:00 AM66 °FClear.No wind73%29.83 "Hg10 mi
2:30 AM68 °FClear.3 mph73%29.83 "Hg10 mi
2:00 AM68 °FClear.3 mph69%29.83 "Hg10 mi
1:30 AM70 °FClear.3 mph60%29.83 "Hg10 mi
1:00 AM72 °FClear.6 mph57%29.86 "Hg10 mi
12:30 AM73 °FClear.8 mph50%29.86 "Hg10 mi
12:00 AM73 °FClear.8 mph44%29.86 "Hg10 mi
11:30 PM
Sep 1
75 °FClear.8 mph41%29.86 "Hg10 mi
11:00 PM75 °FClear.8 mph36%29.86 "Hg10 mi
10:30 PM75 °FPassing clouds.6 mph36%29.86 "HgN/A
10:00 PM75 °FPassing clouds.3 mph36%29.86 "HgN/A
9:30 PM75 °FClear.6 mph36%29.86 "Hg10 mi
9:00 PM73 °FClear.6 mph38%29.86 "Hg10 mi
8:30 PM73 °FSunny.3 mph38%29.86 "Hg10 mi
8:00 PM75 °FSunny.3 mph41%29.83 "Hg10 mi
7:30 PM81 °FSunny.No wind30%29.83 "Hg10 mi
7:00 PM82 °FSunny.No wind30%29.83 "Hg10 mi
6:30 PM82 °FSunny.No wind25%29.86 "Hg10 mi
6:00 PM84 °FSunny.3 mph25%29.86 "Hg10 mi
5:30 PM84 °FPassing clouds.3 mph25%29.86 "HgN/A
5:00 PM84 °FPassing clouds.8 mph27%29.86 "HgN/A
4:30 PM84 °FPassing clouds.6 mph27%29.86 "HgN/A
4:00 PM84 °FPassing clouds.8 mph25%29.89 "HgN/A
3:30 PM84 °FPassing clouds.8 mph27%29.89 "HgN/A
3:00 PM82 °FPassing clouds.8 mph28%29.89 "HgN/A
2:30 PM81 °FPassing clouds.8 mph32%29.89 "HgN/A
2:00 PM82 °FPassing clouds.10 mph35%29.89 "HgN/A
1:30 PM81 °FPassing clouds.8 mph37%29.92 "HgN/A
Weather by CustomWeather, © 2014

See weather overviewHow to use our weather pages